Погода в Огибаловом

Россия / Вологодская область     60°33′56″N   39°40′52″E
темп.,
°C
ветер,
м/с
пор.,
м/с
влажн.,
%
обл.,
%
осадки,
мм/ч
давл.,
гПа
погр.,
м
2 марта, вт
вт200:00+1зсз41196100 0.3 1000765
03:000зсз61397100 0.6 9991209
06:00−1зсз5118899 0.3 998992
09:00−2зсз5119198 0.3 999855
12:00−1зсз61191100 0.2 9991000
15:00−2сз61292100 0.7 10001159
18:00−5сз4138491 0.2 1003875
21:00−6сз5139093 0.3 1006906
3 марта, ср
ср300:00−7сз41292100 0.1 1007762
03:00−8зсз41193100 0.2 1009532
06:00−10зсз4109492 0.0 1007340
09:00−8з4109494 0.1 1006420
12:00−4з51093100 0.4 1004710
15:00−3зсз51092100 0.8 1004894
18:00−4зсз41194100 0.4 1002788
21:00−4з3997100 1.1 1001494
4 марта, чт
чт400:00−6з2598100 0.6 998143
03:00−7зсз1198100 0.6 99621
06:00−9в239698 0.0 99454
09:00−9всв249599 0.0 994168
12:00−6ссв3788100 0.0 995543
15:00−6с368698 0.0 997698
18:00−10ссз269493 0.0 998145
21:00−13ссз259656 0.0 1000113
5 марта, пт
пт500:00−15ссз22970 0.0 100220
03:00−17ссз12960 0.0 100320
06:00−17з119913 0.0 100420
09:00−15зюз129615 0.0 100689
12:00−10зюз248957 0.0 1007299
15:00−7зюз358772 0.0 1007527
18:00−10юз259580 0.0 1008108
21:00−10зюз279683 0.2 1010252
6 марта, сб
сб600:00−14ссв259699 0.1 1011193
03:00−17с229798 0.2 101261
06:00−21ссз12957 0.0 101220
09:00−18зсз129236 0.0 1012129
12:00−13з249299 0.0 1011278
15:00−10зюз358977 0.0 1010423
18:00−14юз279570 0.0 1008159
21:00−12юз399685 0.2 1006294